Elko, NV

7:22 AM PDT on June 28, 2017 (GMT -0700)
Elko Regional

Weather History for KEKO - November, 2013

Change the Weather History Date:

Saturday, November 23, 2013

  Actual Average Record
Temperature  
Mean Temperature 36 °F 32 °F  
Max Temperature 50 °F 44 °F 71 °F (1894)
Min Temperature 21 °F 19 °F -8 °F (1994)
Degree Days  
Heating Degree Days 29 33  
Month to date heating degree days 576 664  
Since 1 July heating degree days 1353 1493  
Cooling Degree Days 0 0  
Month to date cooling degree days 0 0  
Year to date cooling degree days 776 383  
Moisture  
Dew Point 5 °F    
Average Humidity 34    
Maximum Humidity 55    
Minimum Humidity 13    
Precipitation  
Precipitation 0.00 in 0.03 in 0.90 in (1896)
Month to date precipitation 0.36 0.84  
Year to date precipitation 5.81 8.44  
Snow  
Snow 0.00 in 0.20 in 5.00 in (1965)
Month to date snowfall 2.8 3.2  
Since 1 July snowfall 5.7 3.9  
Since 1 September snowfall 5.7 3.9  
Snow Depth 0.00 in    
Sea Level Pressure  
Sea Level Pressure 30.20 in    
Wind  
Wind Speed 14 mph (NE)    
Max Wind Speed 30 mph    
Max Gust Speed 41 mph    
Visibility 10 miles    
Events      
T = Trace of Precipitation, MM = Missing Value Source: NWS Daily Summary

Daily Weather History Graph

Daily Weather History Graph

Search for Another Location

Airport or City:

Trip Planner

Search our weather history database for the weather conditions in past years. The results will help you decide how hot, cold, wet, or windy it might be!

Date:

Astronomy

Nov. 23, 2013 Rise Set
Actual Time 6:39 AM PST 4:19 PM PST
Civil Twilight 6:09 AM PST 4:49 PM PST
Nautical Twilight 5:36 AM PST 5:22 PM PST
Astronomical Twilight 5:03 AM PST 5:55 PM PST
Moon 9:52 PM PST (11/23) 10:58 AM PST (11/23)
Length of Visible Light 10h 39m
Length of Day
9h 39m
Waning Gibbous, 68% of the Moon is Illuminated
Nov 23
Waning Gibbous
Nov 25
Last Quarter
Dec 2
New
Dec 9
First Quarter
Dec 17
Full

Hourly Weather History & Observations

Time (PST) Temp. Windchill Dew Point Humidity Pressure Visibility Wind Dir Wind Speed Gust Speed Precip Events Conditions
12:56 AM 30.9 °F 22.2 °F 3.0 °F 31% 30.27 in 10.0 mi ENE 10.4 mph 17.3 mph N/A   Clear
1:56 AM 30.9 °F 20.7 °F 3.0 °F 31% 30.28 in 10.0 mi NE 13.8 mph - N/A   Clear
2:56 AM 32.0 °F 22.5 °F 3.0 °F 29% 30.26 in 10.0 mi NE 12.7 mph - N/A   Clear
3:56 AM 33.1 °F 23.4 °F 3.0 °F 28% 30.27 in 10.0 mi North 13.8 mph - N/A   Clear
4:56 AM 32.0 °F 27.5 °F 3.9 °F 31% 30.27 in 10.0 mi NNW 4.6 mph - N/A   Clear
5:56 AM 30.9 °F 22.8 °F 3.9 °F 32% 30.27 in 10.0 mi NE 9.2 mph - N/A   Clear
6:56 AM 30.9 °F 21.2 °F 3.9 °F 32% 30.27 in 10.0 mi NNE 12.7 mph - N/A   Clear
7:56 AM 36.0 °F 26.7 °F 3.9 °F 26% 30.27 in 10.0 mi NE 15.0 mph 24.2 mph N/A   Clear
8:56 AM 39.9 °F 30.8 °F 3.9 °F 22% 30.24 in 10.0 mi NE 18.4 mph 26.5 mph N/A   Clear
9:56 AM 44.1 °F 35.7 °F 1.9 °F 17% 30.22 in 10.0 mi NE 20.7 mph 31.1 mph N/A   Clear
10:56 AM 46.0 °F 37.0 °F 1.9 °F 16% 30.17 in 10.0 mi NE 27.6 mph 36.8 mph N/A   Clear
11:56 AM 48.0 °F - -0.0 °F 14% 30.16 in 10.0 mi NE 21.9 mph 34.5 mph N/A   Clear
12:56 PM 48.9 °F - 1.0 °F 14% 30.14 in 10.0 mi NE 21.9 mph 32.2 mph N/A   Clear
1:56 PM 50.0 °F - 3.0 °F 15% 30.12 in 10.0 mi NE 17.3 mph 26.5 mph N/A   Clear
2:56 PM 48.9 °F - 1.9 °F 15% 30.12 in 10.0 mi NNE 20.7 mph 29.9 mph N/A   Clear
3:56 PM 46.9 °F - 7.0 °F 20% 30.13 in 10.0 mi NNE 15.0 mph - N/A   Clear
4:56 PM 42.1 °F 36.6 °F 8.1 °F 25% 30.15 in 10.0 mi NE 9.2 mph - N/A   Clear
5:56 PM 39.9 °F 32.1 °F 9.0 °F 28% 30.15 in 10.0 mi NE 13.8 mph - N/A   Clear
6:56 PM 37.0 °F 28.5 °F 10.0 °F 33% 30.17 in 10.0 mi ENE 13.8 mph - N/A   Clear
7:56 PM 37.0 °F 28.9 °F 9.0 °F 31% 30.16 in 10.0 mi NE 12.7 mph - N/A   Clear
8:56 PM 36.0 °F 28.0 °F 9.0 °F 33% 30.16 in 10.0 mi NNE 11.5 mph - N/A   Clear
9:56 PM 34.0 °F 28.8 °F 10.0 °F 37% 30.17 in 10.0 mi East 5.8 mph - N/A   Clear
10:56 PM 27.0 °F - 12.0 °F 53% 30.18 in 10.0 mi Calm Calm - N/A   Clear
11:56 PM 21.0 °F 16.2 °F 12.0 °F 68% 30.19 in 10.0 mi WSW 3.5 mph - N/A   Clear